User: anonymous   Login
Location: Nasgenstadt
(48.2786°N, 9.7553°E)
Time: 01:07:24
(UTC+02:00)
Language:

Tiangong - Orbit

View from above orbital plane
View from above orbital plane
View from above satellite
View from above satellite

Ground track
Ground track

The orbit data is extracted from the following two-line orbital elements,

1 48274U 21035A   21269.49371163  .00004442  00000-0  54647-4 0  9994
2 48274  41.4709  25.0590 0001771 330.7033 122.4197 15.61319868 23546
Epoch (UTC): 26 September 2021 11:50:56
Eccentricity: 0.0001771
inclination: 41.4709°
perigee height: 382 km
apogee height: 385 km
right ascension of ascending node: 25.0590°
argument of perigee: 330.7033°
revolutions per day: 15.61319868
mean anomaly at epoch: 122.4197°
orbit number at epoch: 2354

The dashed part of the orbit path shows where the satellite is in the earth's shadow,  

DLR